Location: Theydon Bois
(51.6750°N, 0.1050°E)
Time: 22:44:14
(UTC+00:00)

Envisat - Pass Details

Date: 13 December 2019
Orbit: 764 x 766 km, 98.1° (Epoch: 21 January)

Event Time Altitude Azimuth Distance (km) Brightness Sun altitude
Rises 19:06:25 0° 207° (SSW) 3,224 6.6 -29.1°
Reaches altitude 10° 19:09:19 10° 224° (SW) 2,303 6.0 -29.5°
Maximum altitude 19:12:59 20° 271° (W) 1,728 5.5 -30.1°
Drops below altitude 10° 19:16:41 10° 318° (NW) 2,315 5.9 -30.7°
Sets 19:19:37 0° 335° (NNW) 3,247 6.6 -31.1°
